Simultaneous Nadir Overpasses (SNOs) Predictions

Prediction of SNOs between METOP-B and TERRA Satellite Orbit:

Table of predicted SNOs for the next 14.0 days since TLE Epoch: 11/9/2018
Index Date (METOP-B) Time (METOP-B) Lat,Lon (METOP-B) SZA (METOP-B ) Date (TERRA) Time (TERRA) Lat,Lon (TERRA) SZA (TERRA ) Distance(km) Time Diff (sec)
1 11/12/2018 04:24:58 81.28, 160.69 102.02 11/12/2018 04:25:22 81.28, 160.79 102.05 1.92 24
2 11/12/2018 05:15:38 -81.28, -31.74 77.94 11/12/2018 05:14:49 -81.28, -31.65 77.96 1.45 49
3 11/14/2018 23:59:23 81.28,-132.72 102.77 11/14/2018 23:59:35 81.28,-132.74 102.78 0.82 12
4 11/15/2018 00:50:03 -81.28, 34.86 77.19 11/15/2018 00:49:02 -81.28, 34.84 77.22 0.27 61
5 11/17/2018 18:43:10 -81.26, 125.35 76.68 11/17/2018 18:44:24 -81.24, 125.35 76.66 2.20 74
6 11/17/2018 19:33:49 81.28, -66.54 103.43 11/17/2018 19:33:49 81.27, -66.60 103.42 1.31 0
7 11/17/2018 20:24:28 -81.28, 101.44 76.49 11/17/2018 20:23:15 -81.29, 101.39 76.53 0.92 73
8 11/20/2018 14:17:33 -81.27,-167.69 75.98 11/20/2018 14:18:35 -81.27,-167.67 75.95 0.42 62
9 11/20/2018 15:08:13 81.28, 0.01 104.08 11/20/2018 15:08:01 81.27, -0.02 104.07 0.67 12
10 11/23/2018 09:51:59 -81.27,-101.54 75.43 11/23/2018 09:52:49 -81.26,-101.40 75.39 2.41 50




NCC Satellite Simultaneous Nadir Overpasses (SNOs) Prediction Service
